• In Romania
  • List of Countries
  • For 7 days
  • Water Temperature
  • Satellite Maps
  • Weather Map
  • Weather Widgets
  • user-avatar
    Login

    Hourly Weather Berat

    Today, 26 March, Sunday

    Time Temperature Precipitation Wind Pressure Humidity
    00:00 +12°C° 0 mm 1 mps 746 mmHg 90%
    01:00 +12°C° 0 mm 1 mps 745 mmHg 90%
    02:00 +11°C° 0 mm 1 mps 745 mmHg 90%
    03:00 +11°C° 0 mm 1 mps 745 mmHg 89%
    04:00 +11°C° 0 mm 1 mps 745 mmHg 89%
    05:00 +12°C° 0 mm 1 mps 745 mmHg 84%
    06:00 +13°C° 0 mm 1 mps 744 mmHg 79%
    07:00 +15°C° 0 mm 1 mps 744 mmHg 70%
    08:00 +17°C° 0 mm 2 mps 744 mmHg 64%
    09:00 +18°C° 0 mm 2 mps 744 mmHg 58%
    10:00 +19°C° 0 mm 2 mps 743 mmHg 52%
    11:00 +20°C° 0.1 mm 3 mps 743 mmHg 53%
    12:00 +20°C° 0.1 mm 3 mps 743 mmHg 53%
    13:00 +20°C° 0.1 mm 4 mps 742 mmHg 53%
    14:00 +19°C° 0.1 mm 4 mps 742 mmHg 57%
    15:00 +18°C° 0.1 mm 4 mps 742 mmHg 60%
    16:00 +18°C° 0.1 mm 4 mps 742 mmHg 64%
    17:00 +16°C° 0.2 mm 3 mps 742 mmHg 73%
    18:00 +13°C° 0.2 mm 3 mps 742 mmHg 83%
    19:00 +13°C° 0.2 mm 2 mps 743 mmHg 93%
    20:00 +12°C° 0.1 mm 2 mps 743 mmHg 94%
    21:00 +12°C° 0.1 mm 2 mps 744 mmHg 94%
    22:00 +11°C° 0.1 mm 1 mps 744 mmHg 94%
    23:00 +11°C° 0.1 mm 1 mps 744 mmHg 93%

    Tomorrow, 27 March, Monday

    Time Temperature Precipitation Wind Pressure Humidity
    00:00 +10°C° 0.1 mm 1 mps 744 mmHg 93%
    01:00 +10°C° 0.1 mm 1 mps 744 mmHg 92%
    02:00 +10°C° 0.1 mm 1 mps 745 mmHg 90%
    03:00 +9°C° 0.1 mm 2 mps 745 mmHg 89%
    04:00 +9°C° 0.1 mm 2 mps 745 mmHg 87%
    05:00 +10°C° 0.1 mm 2 mps 745 mmHg 84%
    06:00 +10°C° 0.1 mm 2 mps 745 mmHg 80%
    07:00 +12°C° 0.1 mm 2 mps 746 mmHg 77%
    08:00 +13°C° 0.5 mm 2 mps 746 mmHg 70%
    09:00 +14°C° 0.5 mm 2 mps 746 mmHg 63%
    10:00 +16°C° 0.5 mm 2 mps 746 mmHg 55%
    11:00 +16°C° 0.5 mm 2 mps 746 mmHg 56%
    12:00 +16°C° 0.5 mm 2 mps 746 mmHg 56%
    13:00 +17°C° 0.5 mm 2 mps 747 mmHg 56%
    14:00 +16°C° 0.6 mm 2 mps 746 mmHg 59%
    15:00 +16°C° 0.6 mm 2 mps 746 mmHg 62%
    16:00 +15°C° 0.6 mm 2 mps 746 mmHg 65%
    17:00 +14°C° 0.4 mm 2 mps 747 mmHg 71%
    18:00 +13°C° 0.4 mm 2 mps 747 mmHg 76%
    19:00 +10°C° 0.4 mm 2 mps 747 mmHg 81%
    20:00 +10°C° 0.1 mm 2 mps 747 mmHg 82%
    21:00 +10°C° 0.1 mm 2 mps 748 mmHg 83%
    22:00 +10°C° 0.1 mm 2 mps 748 mmHg 83%
    23:00 +9°C° 0 mm 2 mps 748 mmHg 84%

    Day after tomorrow, 28 March, Tuesday

    Time Temperature Precipitation Wind Pressure Humidity
    00:00 +9°C° 0 mm 2 mps 748 mmHg 85%
    01:00 +9°C° 0 mm 2 mps 748 mmHg 85%
    02:00 +8°C° 0 mm 2 mps 748 mmHg 86%
    03:00 +8°C° 0 mm 2 mps 748 mmHg 86%
    04:00 +8°C° 0 mm 2 mps 748 mmHg 86%
    05:00 +8°C° 0 mm 2 mps 748 mmHg 84%
    06:00 +9°C° 0 mm 2 mps 748 mmHg 81%
    07:00 +9°C° 0 mm 2 mps 748 mmHg 79%
    08:00 +12°C° 0 mm 2 mps 749 mmHg 71%
    09:00 +14°C° 0 mm 2 mps 749 mmHg 62%
    10:00 +16°C° 0 mm 2 mps 749 mmHg 54%
    11:00 +16°C° 0 mm 2 mps 749 mmHg 51%
    12:00 +17°C° 0 mm 2 mps 748 mmHg 48%
    13:00 +18°C° 0 mm 2 mps 748 mmHg 45%
    14:00 +18°C° 0.1 mm 3 mps 748 mmHg 46%
    15:00 +17°C° 0.1 mm 3 mps 747 mmHg 47%
    16:00 +17°C° 0.1 mm 3 mps 747 mmHg 48%
    17:00 +14°C° 0 mm 3 mps 747 mmHg 56%
    18:00 +12°C° 0 mm 3 mps 748 mmHg 65%
    19:00 +10°C° 0 mm 2 mps 748 mmHg 73%
    20:00 +10°C° 0 mm 2 mps 748 mmHg 73%
    21:00 +9°C° 0 mm 2 mps 749 mmHg 73%
    22:00 +9°C° 0 mm 2 mps 749 mmHg 72%
    23:00 +9°C° 0 mm 2 mps 749 mmHg 72%

    29 March, Wednesday

    Time Temperature Precipitation Wind Pressure Humidity
    00:00 +9°C° 0 mm 2 mps 749 mmHg 71%
    01:00 +8°C° 0 mm 2 mps 749 mmHg 71%
    02:00 +8°C° 0 mm 2 mps 749 mmHg 70%
    03:00 +8°C° 0 mm 2 mps 749 mmHg 70%
    04:00 +8°C° 0 mm 2 mps 748 mmHg 69%
    05:00 +9°C° 0 mm 2 mps 749 mmHg 67%
    06:00 +10°C° 0 mm 2 mps 749 mmHg 64%
    07:00 +12°C° 0 mm 2 mps 749 mmHg 61%
    08:00 +14°C° 0 mm 2 mps 749 mmHg 53%
    09:00 +16°C° 0 mm 2 mps 749 mmHg 46%
    10:00 +19°C° 0 mm 1 mps 749 mmHg 38%
    11:00 +19°C° 0 mm 2 mps 748 mmHg 36%
    12:00 +20°C° 0 mm 2 mps 748 mmHg 34%
    13:00 +21°C° 0 mm 3 mps 748 mmHg 32%
    14:00 +20°C° 0 mm 3 mps 747 mmHg 35%
    15:00 +20°C° 0 mm 3 mps 747 mmHg 38%
    16:00 +19°C° 0 mm 4 mps 747 mmHg 40%
    17:00 +17°C° 0 mm 3 mps 747 mmHg 50%
    18:00 +13°C° 0 mm 3 mps 747 mmHg 61%
    19:00 +12°C° 0 mm 2 mps 747 mmHg 71%
    20:00 +10°C° 0 mm 2 mps 747 mmHg 71%
    21:00 +10°C° 0 mm 2 mps 747 mmHg 71%
    22:00 +10°C° 0 mm 1 mps 748 mmHg 71%
    23:00 +10°C° 0 mm 1 mps 748 mmHg 70%

    30 March, Thursday

    Time Temperature Precipitation Wind Pressure Humidity
    00:00 +10°C° 0 mm 1 mps 747 mmHg 69%
    01:00 +10°C° 0 mm 1 mps 747 mmHg 68%
    02:00 +9°C° 0 mm 1 mps 747 mmHg 68%
    03:00 +9°C° 0 mm 1 mps 747 mmHg 67%
    04:00 +8°C° 0 mm 2 mps 747 mmHg 66%
    05:00 +10°C° 0 mm 2 mps 747 mmHg 64%
    06:00 +12°C° 0 mm 2 mps 748 mmHg 61%
    07:00 +13°C° 0 mm 2 mps 748 mmHg 58%
    08:00 +15°C° 0 mm 2 mps 748 mmHg 52%
    09:00 +17°C° 0 mm 3 mps 748 mmHg 46%
    10:00 +19°C° 0 mm 3 mps 747 mmHg 39%
    11:00 +20°C° 0 mm 3 mps 747 mmHg 39%
    12:00 +21°C° 0 mm 3 mps 747 mmHg 38%
    13:00 +21°C° 0 mm 3 mps 746 mmHg 38%
    14:00 +21°C° 0.1 mm 4 mps 746 mmHg 42%
    15:00 +20°C° 0.1 mm 4 mps 746 mmHg 46%
    16:00 +19°C° 0.1 mm 5 mps 746 mmHg 51%
    17:00 +17°C° 0.1 mm 4 mps 746 mmHg 58%
    18:00 +14°C° 0.1 mm 3 mps 747 mmHg 66%
    19:00 +12°C° 0.1 mm 3 mps 747 mmHg 74%
    20:00 +12°C° 0 mm 3 mps 747 mmHg 75%
    21:00 +11°C° 0 mm 3 mps 748 mmHg 75%
    22:00 +11°C° 0 mm 3 mps 748 mmHg 75%
    23:00 +11°C° 0 mm 3 mps 748 mmHg 76%

    31 March, Friday

    Time Temperature Precipitation Wind Pressure Humidity
    00:00 +10°C° 0 mm 3 mps 748 mmHg 77%
    01:00 +10°C° 0 mm 3 mps 748 mmHg 77%
    02:00 +9°C° 0 mm 3 mps 748 mmHg 78%
    03:00 +9°C° 0 mm 3 mps 748 mmHg 79%
    04:00 +9°C° 0 mm 3 mps 748 mmHg 79%
    05:00 +10°C° 0 mm 2 mps 749 mmHg 76%
    06:00 +10°C° 0 mm 2 mps 749 mmHg 73%
    07:00 +12°C° 0 mm 2 mps 749 mmHg 70%
    08:00 +14°C° 0 mm 2 mps 749 mmHg 61%
    09:00 +17°C° 0 mm 2 mps 749 mmHg 53%
    10:00 +20°C° 0 mm 1 mps 749 mmHg 44%
    11:00 +21°C° 0 mm 1 mps 749 mmHg 41%
    12:00 +21°C° 0 mm 2 mps 749 mmHg 39%
    13:00 +21°C° 0 mm 2 mps 748 mmHg 36%
    14:00 +21°C° 0 mm 2 mps 748 mmHg 39%
    15:00 +20°C° 0 mm 2 mps 748 mmHg 41%
    16:00 +19°C° 0 mm 3 mps 747 mmHg 44%
    17:00 +17°C° 0 mm 2 mps 747 mmHg 54%
    18:00 +15°C° 0 mm 1 mps 747 mmHg 63%
    19:00 +13°C° 0 mm 1 mps 747 mmHg 73%
    20:00 +12°C° 0 mm 1 mps 747 mmHg 74%
    21:00 +12°C° 0 mm 1 mps 747 mmHg 75%
    22:00 +11°C° 0 mm 1 mps 748 mmHg 76%
    23:00 +11°C° 0 mm 1 mps 747 mmHg 76%
    Show more